Location: Beekmeers
(50.8953°N, 3.6968°E)
Time: 09:46:38
(UTC+00:00)

SL-14 R/B - Pass Details

Date: 23 May 2024
Orbit: 508 x 541 km, 82.4° (Epoch: 14 June)

Event Time Altitude Azimuth Distance (km) Brightness Sun altitude
Exits shadow 01:01:41 28° 235° (SW) 993 4.2 -16.3°
Maximum altitude 01:03:10 42° 286° (WNW) 756 3.9 -16.3°
Drops below altitude 10° 01:06:51 10° 358° (N) 1,759 7.0 -16.1°
Sets 01:09:05 0° 6° (N) 2,646 8.3 -15.9°
